Погода в Балхаше

Погода в Балхаше : погода сейчас, прогноз погоды и архив. Всё, что Вы хотите узнать о погоде в Балхаше!

Хотите узнать прогноз погоды в Балхаше? Тогда Вам сюда: Погода в Балхаше

Поиск расширенной информации на нашем сайте:

Другие новости

Новости СМИ2

Главная страница сайта

Новости сайта

03.07.2017

Напоминаем, что на нашем специализированном сайте Метеоцентр.Азия вы можете получить высокодетализированные автоматические прогнозы погоды по пунктам России, СНГ и мира в авиационном формате (включающие направление и скорость ветра, видимость, явления погоды, количество и форму облачности, нижнюю и верхнюю границу облачности).


Погода в Балхаше - сегодня

Время (UTC), дата Ветер
(°,м/с) 
Видим.   Явления Облачность Т
(°С)
Тd
(°С)
f(%) Тe
(°С)
Pmin
(гПа)
dP
(гПа)
Po
(мм)
O2
(г/м3)
Тmin Tmax R s Состояние
почвы
18 17.11.17 070 (В) 10 км    ясно 
-2.7 -3.3 96 -5  1031.2  -1.1  740  302    +2.9  0.0     
21 17.11.17 070 (В) 10 км    ясно 
-2.9 -4.2 91 -6  1028.9  -2.2  739  301           
00 18.11.17 070 (В) 10 км    ясно 
-4.5 -5.4 93 -7  1027.8  -1.3  738  303           
03 18.11.17 130 (ЮВ) 4000 м    10/10 1000 м 
[Sc]
-1.2 -1.9 95 -4  1026.5  -0.7  737  298           
06 18.11.17 160 (Ю) 10 км    10/0 средняя, верхняя 
[Ac As|Ci fib]
+1 -1.3 85 -2  1024.3  -1.8  736  295  -4.5         
09 18.11.17 160 (Ю) 10 км  дымка  10/0 средняя, верхняя 
[Ac As|Ci fib]
+1.7 -0.5 85 -1  1022.6  -1.5  735  294           
12 18.11.17 120 (ЮВ) 10 км  дымка  10/10 600 м 
[Sc|Ac trans]
+1.2 -0.7 87 1022.3  -0.4  734  295           
15 18.11.17 020 (С) 10 км    10/0 средняя 
[As op]
+0.2 -0.9 92 -1  1022.4  734  296    +2.7       
18 18.11.17 260 (З) 9{15}  10 км  в посл. час ливневой дождь  10/10 600 м кучево-дожд. 
[Cb calv]
+2.6 -0.1 82 -1  1023.2  1.1  735  293    +2.7       
21 18.11.17 260 (З) 9-15{16}  10 км    9/9 1000 м 
[Sc]
+0.5 -2.8 79 -4  1025.7  2.1  737  297           
00 19.11.17 290 (З) 8{15}  10 км    ясно 
-1.6 -5.3 76 -6  1030.6  4.3  740  300           
03 19.11.17 240 (ЮЗ) 10 км  слаб. ливневой снег  10/10 600 м кучево-дожд. 
[Cb cap]
-5.2 -6.6 90 -9  1033.7  2.7  727  299        равномерный
сухой снег
100% 
06 19.11.17 330 (СЗ) 20000 м    9/9 1000 м 
[Sc]
-0.4 -7.5 59 -3  1039  3.2  746  302  -2.4    0.5     
09 19.11.17 310 (СЗ) 20000 м    9/9 1000 м 
[Sc]
+0.5 -6.9 58 -1  1040  1.1  747  301           
12 19.11.17 290 (З) 10 км    8/4 1000 м 
[Sc]
-0.6 -7.4 60 1041.2  748  303           
15 19.11.17 060 (СВ) 10 км    4/4 1000 м 
[Sc]
-2.6 -6.3 76 -5  1041.8  0.3  748  305    +1.6       
18 19.11.17 050 (СВ) 10 км    1/0 средняя 
[Ac trans]
-5 -7.1 85 -6  1042.1  -0.1  748  308    +1.6       
21 19.11.17 050 (СВ) 10 км    ясно 
-6.1 -8 86 -8  1042.1  -0.2  748  309           
00 20.11.17 050 (СВ) 10 км    ясно 
-7.4 -10 82 -11  1042.4  748  311           
03 20.11.17 060 (СВ) 20000 м    4/3 1000 м верхняя 
[Cu Sc|Ci fib]
-7.4 -8.7 90 -11  1042.4  748  311  -7.4         
06 20.11.17 080 (В) 20000 м    6/6 1000 м средняя, верхняя 
[Cu med, cong|Ac trans|Ci fib]
-0.7 -6.3 66 -2  1041.3  0.1  748  303  -7.4         
09 20.11.17 110 (В) 20000 м    8/6 1000 м верхняя 
[Cu med, cong|Ci fib]
+0.9 -6.7 57 -1  1039.5  -1.5  747  301           
12 20.11.17 090 (В) 10 км    3/1 1000 м верхняя 
[Cu hum|Ci fib]
-1.5 -5.6 74 -1  1039.7  -0.2  746  303           
15 20.11.17 050 (СВ) 10 км    ясно 
-5.4 -9.2 75 -9  1040.7  0.3  747  308    +1.7       
18 20.11.17 050 (СВ) 10 км    ясно 
-7.4 -10 82 -11  1040.5  -0.5  746  310    +1.7       
Время (UTC), дата Ветер
(°,м/с) 
Видим.   Явления Облачность Т
(°С)
Тd
(°С)
f(%) Тe
(°С)
Pmin
(гПа)
dP
(гПа)
Po
(мм)
O2
(г/м3)
Тmin Tmax R s Состояние
почвы

Для получения пояснительной информации подведите курсор к названию столбца.

ПОГОДА в Балхаше - архив

Всё, что Вы хотите узнать о погоде в Балхаше - удобно и подробно!

Выберите нужную дату (начиная с 1 января 2015* года) и нажмите кнопку "Найти".
Будут отображены архивные сводки погоды по пункту Балхаш, начиная с указанной даты.


Отображать данные в формате CSV (для использования в таблицах Excel)


Внимание! Наш архив погоды предназначен исключительно для личного некоммерческого использования в познавательных целях. Если Вам необходимы официальные справки о состоянии погоды (для производственных, юридических, коммерческих и т.п. целей), обращайтесь в органы Росгидромета.

*Примечание: данная дата относится к архиву по метеостанциям СССР (Россия, СНГ, Балтия).
Архив по метеостанциям Зарубежной Европы и Азии (кроме Китая) хранится 10 дней, по другим регионам земного шара (Китай, Африка, Америка, Австралия, Океания) - 1 день.

Балхаш - район местоположения метеостанции


Название, широта, долгота, высота метеостанции:
Балхаш 46.8°ш. 75.1°д. 350 м над ур. моря [Казахстан]

Дополнительная информация

В oтличие oт бoльшинства пoгoдных сайтoв мы публикуем пoдрoбную метеoинфoрмацию в детальнoм прoфессиoнальнoм фoрмате.

Характеристики температуры и влажнoсти вoздуха измеряются на высoте 2 м в тени вдали oт зданий и деревьев.
Скoрoсть ветра измеряется на высoте 10 м (на урoвне рoста челoвека скoрoсть ветра ниже в 1.5-2 раза). Если метеoстанция нахoдится в гoрoде или в лесу, тo скoрoсть ветра занижена на 2-4 м/с пo сравнению с oткрытым местoм. Скoрoсть ветра над акватoриями крупных рек и oзёр, а также на вершинах хoлмoв на 2-5 м/с выше, чем в oбычных услoвиях.
Атмoсфернoе давление в разных тoчках местнoсти мoжет значительнo oтличаться oт давления на метеoстанции, в зависимoсти oт услoвий рельефа (при пoдъёме на 10 м давление пoнижается примернo на 1 мм рт.ст.).